Regional Weather Roundup
Issued by NWS Nashville, TN

Home | Current Version | Previous Version | Text Only | Print | Product List | Glossary On
Versions: 1 2 3 4 5 6 7 8 9 10 11 12 13 14 15 16 17 18 19 20 21 22 23 24 25 26 27 28 29 30 31 32 33 34 35 36 37 38 39 40 41 42 43 44 45 46 47 48 49 50
000
ASUS44 KOHX 190715
RWROHX
MIDDLE TENNESSEE HOURLY WEATHER ROUNDUP
NATIONAL WEATHER SERVICE NASHVILLE TN
100 AM CST FRI DEC 19 2014

NOTE: "FAIR" INDICATES FEW OR NO CLOUDS BELOW 12,000 FEET WITH
NO SIGNIFICANT WEATHER AND/OR OBSTRUCTIONS TO VISIBILITY.

* THESE REPORTS ARE NOT UNDER NWS QUALITY CONTROL AND MAY NOT
  REPORT WEATHER SUCH AS PRECIPITATION AND FOG.


TNZ005>011-023>034-057-059-062>066-078-080-190800
...NORTHERN MIDDLE TENNESSEE...

CITY           SKY/WX    TMP DP  RH WIND       PRES   REMARKS
CLARKSVILLE    CLOUDY    34  29  82 N6        30.26S WCI  29
CROSSVILLE     PTCLDY    33  29  85 N5        30.16S FOG     WCI  29
GALLATIN       CLOUDY    32  30  92 N3        30.24S
DICKSON        MOCLDY    34  30  86 N5        30.22R WCI  30
LEBANON        CLOUDY    33  29  86 N3        30.21S
LIVINGSTON     CLOUDY    30  28  92 NE5       30.19S WCI  25
NASHVILLE      CLOUDY    35  31  85 N8        30.24S WCI  29
WEST NASHVILLE CLOUDY    34  34 100 N6        30.25R WCI  29
PORTLAND       CLOUDY    30  27  86 N3        30.22S
SMYRNA         CLOUDY    35  32  89 N5        30.25S WCI  31
SPARTA         CLEAR     30  30 100 CALM      30.18F
$$
TNZ056-058-060-061-075>077-079-093>097-190800
...SOUTHERN MIDDLE TENNESSEE...

CITY           SKY/WX    TMP DP  RH WIND       PRES   REMARKS
LEWISBURG      CLOUDY    34  33  96 CALM      30.21S
MCMINNVILLE    CLEAR     34  34 100 CALM      30.19S
MURFREESBORO   CLOUDY    35  32  89 N5        30.22S WCI  31
SHELBYVILLE    MOCLDY    34  34 100 N5        30.21F WCI  30
TULLAHOMA      CLEAR     28  27  93 CALM      30.19S
WINCHESTER     CLEAR     27  27 100 CALM      30.20S
$$


...KEY TO REMARKS...
VSB - VISIBILITY IN MILES
WCI - WIND CHILL INDEX
HX  - HEAT INDEX



USA.gov is the U.S. government's official web portal to all federal, state and local government web resources and services.